Location: Kapla
(46.2483°N, 15.0094°E)
Time: 14:47:02
(UTC+00:00)

Cosmos 2322 Rocket - Pass Details

Date: 03 March 2021
Orbit: 832 x 852 km, 71.0° (Epoch: 19 April)

Event Time Altitude Azimuth Distance (km) Brightness Sun altitude
Rises 19:07:57 0° 242° (WSW) 3,369 6.0 -24.5°
Reaches altitude 10° 19:10:45 10° 254° (WSW) 2,439 5.3 -25.0°
Maximum altitude 19:15:25 27° 311° (NW) 1,572 4.2 -25.8°
Drops below altitude 10° 19:20:08 10° 8° (N) 2,457 4.7 -26.5°
Sets 19:22:59 0° 21° (NNE) 3,398 5.4 -27.0°
